sat.trackr.live / text

‹ back to catalog

YUNYAO-1 46

NORAD 63347 · 2025-059D

PAYLOAD ACTIVE UNKNOWN

§ Identity

Operator
Country
PRC
Launch date
2025-03-21
Launch site
JSC
Launch vehicle
Mass (kg)
RCS (m²)

External: N2YO · Heavens-Above · Gunter

§ Orbital elements

Epoch: 2026-09-21T23:17:44.170368Z

Period
95.28 min
Inclination
97.6149°
Eccentricity
0.0011854
Mean motion
15.11395056 rev/d
Perigee alt
523.8 km
Apogee alt
540.1 km
Semi-major
6,910.1 km
B*
1.2538e-4
RAAN
85.9218°
Arg perigee
165.8046°
Mean anomaly
194.3519°
Rev number
8,291

§ Raw data

YUNYAO-1 461 63347U 25059D   26264.97065012  .00002054  00000+0  12538-3 0  99962 63347  97.6149  85.9218 0011854 165.8046 194.3519 15.11395056 82911

JSON: /api/v1/satellites/63347 · /tle

For live sub-satellite position, see the globe view (requires WebGL).

§ Visibility from observer

Set your observer location to see the next 7 days of passes ≥ 10°. The values pass through the URL so the page stays shareable.

No JS? Fill the form by hand. The geolocation button needs JavaScript.